Regional Weather Roundup
Issued by NWS Cleveland, OH

Home | Current Version | Previous Version | Graphics & Text | Print | Product List | Glossary On
Versions: 1 2 3 4 5 6 7 8 9 10 11 12 13 14 15 16 17 18 19 20 21 22 23 24 25 26 27 28 29 30 31 32 33 34 35 36 37 38 39 40 41 42 43 44 45 46 47 48 49 50
000
ASUS41 KCLE 281410
RWRCLE
OHIO REGIONAL WEATHER ROUNDUP
NATIONAL WEATHER SERVICE CLEVELAND, OH
1000 AM EDT SAT MAY 28 2016

NOTE: "FAIR" INDICATES FEW OR NO CLOUDS BELOW 12,000 FEET WITH NO
SIGNIFICANT WEATHER AND/OR OBSTRUCTIONS TO VISIBILITY.

OHZ001>008-015>018-024>027-034-035-043-044-281500-
   NORTHWEST OHIO

CITY           SKY/WX    TMP DP  RH WIND       PRES   REMARKS
DEFIANCE       CLOUDY    77  65  66 S7        30.04R
FINDLAY        CLOUDY    79  64  60 SW14      30.06R
TOLEDO EXPRESS SUNNY     80  66  62 SW8       30.05R
TOLEDO EXEC    CLOUDY    79  65  62 S9        30.06R
LIMA           MOSUNNY   78  66  66 SW12      30.08R
$$

OHZ009>014-019>023-028>033-038-089-281500-
   NORTHEAST OHIO

CITY           SKY/WX    TMP DP  RH WIND       PRES   REMARKS
CLE-HOPKINS    CLOUDY    81  66  60 SW9       30.10R
CLE-LAKEFRONT  SUNNY     83  66  56 S8        30.07R
CUY CO. ARPT   PTSUNNY   86  68  54 SW12      30.10R
LORAIN-ELYRIA  CLOUDY    78  66  66 SW8       30.09R
ASHTABULA      SUNNY     80  69  69 S6        30.12R
AKRON-CANTON   SUNNY     77  66  68 S8        30.12R
WOOSTER        PTSUNNY   77  65  66 SW8       30.13R
MANSFIELD      CLOUDY    74  66  76 S7        30.13R
YOUNGSTOWN     PTSUNNY   79  64  60 S7        30.13R
$$

OHZ042-051>053-060>062-070>072-077>081-281500-
  SOUTHWEST OHIO

CITY           SKY/WX    TMP DP  RH WIND       PRES   REMARKS
CINC-COVINGTON CLOUDY    75  67  76 S8        30.10R
CINC-LUNKEN    CLOUDY    74  68  81 CALM      30.11R
HAMILTON       PTSUNNY   77  67  71 VRB3      30.11R
DAYTON         PTSUNNY   76  66  71 SW10      30.11R
WRIGHT-PAT AFB MOSUNNY   77  67  71 S10       30.10R
DAYTON GENERAL CLOUDY    76  65  68 S8        30.10R
WILMINGTON     MOSUNNY   74  66  76 S8        30.12R
$$

OHZ036-037-039>041-045>050-054>059-063>069-073>076-082>088-281500-
  CENTRAL AND SOUTHEAST OHIO

CITY           SKY/WX    TMP DP  RH WIND       PRES   REMARKS
COLUMBUS       CLOUDY    76  65  68 S9        30.11R
OSU AIRPORT    CLOUDY    75  66  73 S9        30.11R
BOLTON FIELD   PTSUNNY   75  66  73 S12       30.12R
RICKENBACK AFB CLOUDY    75  66  72 SW9       30.11S
NEWARK         PTSUNNY   78  66  66 SW8       30.12R
MARION         CLOUDY    75  65  70 S10       30.11R
LANCASTER      CLOUDY    78  67  68 VRB6      30.13R
ZANESVILLE     MOSUNNY   80  67  64 SW6       30.13R
NEW PHILLY     SUNNY     80  64  58 S6        30.13R
$$




USA.gov is the U.S. government's official web portal to all federal, state and local government web resources and services.